�������l�o���
Date,Time,MP-1(��Sv/h),MP-2(��Sv/h),MP-3(��Sv/h),MP-4(��Sv/h),MP-5(��Sv/h),MP-6(��Sv/h),MP-7(��Sv/h),MP-8(��Sv/h),����,����(m/s),���J
2021/03/23,00:00,0.623,0.910,0.580,1.127,0.791,0.367,0.646,0.607,�k�k��,2.9,��
2021/03/23,00:10,0.621,0.909,0.580,1.130,0.794,0.367,0.649,0.608,�k��,3.1,��
2021/03/23,00:20,0.620,0.908,0.578,1.130,0.792,0.368,0.647,0.607,���k��,3.7,��
2021/03/23,00:30,0.619,0.906,0.580,1.128,0.793,0.369,0.648,0.609,���k��,3.0,��
2021/03/23,00:40,0.620,0.908,0.580,1.128,0.792,0.367,0.649,0.609,���k��,3.1,��
2021/03/23,00:50,0.620,0.908,0.580,1.127,0.791,0.367,0.649,0.609,���k��,2.0,��
2021/03/23,01:00,0.621,0.907,0.581,1.127,0.790,0.369,0.647,0.607,�k��,3.0,��
2021/03/23,01:10,0.620,0.907,0.578,1.127,0.793,0.367,0.646,0.608,���k��,3.5,��
2021/03/23,01:20,0.622,0.908,0.579,1.128,0.792,0.367,0.647,0.607,�k��,3.3,��
2021/03/23,01:30,0.620,0.908,0.580,1.127,0.794,0.367,0.646,0.609,���k��,2.5,��
2021/03/23,01:40,0.620,0.908,0.578,1.129,0.791,0.368,0.647,0.608,��,3.8,��
2021/03/23,01:50,0.620,0.907,0.578,1.127,0.790,0.367,0.646,0.607,���쐼,3.7,��
2021/03/23,02:00,0.619,0.907,0.581,1.130,0.792,0.367,0.645,0.608,���쐼,5.0,��
2021/03/23,02:10,0.622,0.908,0.577,1.130,0.791,0.367,0.646,0.608,��,4.1,��
2021/03/23,02:20,0.620,0.907,0.578,1.129,0.791,0.367,0.646,0.607,��,3.8,��
2021/03/23,02:30,0.620,0.907,0.580,1.128,0.794,0.368,0.645,0.609,��,3.9,��
2021/03/23,02:40,0.621,0.909,0.580,1.129,0.791,0.368,0.645,0.608,��,4.2,��
2021/03/23,02:50,0.620,0.908,0.578,1.131,0.792,0.367,0.647,0.608,���k��,5.3,��
2021/03/23,03:00,0.619,0.908,0.577,1.129,0.792,0.367,0.649,0.608,���k��,5.6,��
2021/03/23,03:10,0.618,0.908,0.578,1.127,0.792,0.367,0.646,0.609,���k��,4.9,��
2021/03/23,03:20,0.620,0.906,0.579,1.128,0.793,0.367,0.646,0.609,��,3.9,��
2021/03/23,03:30,0.617,0.907,0.579,1.127,0.791,0.368,0.646,0.608,��,3.6,��
2021/03/23,03:40,0.619,0.908,0.580,1.127,0.792,0.367,0.649,0.607,��,3.8,��
2021/03/23,03:50,0.620,0.908,0.579,1.128,0.791,0.368,0.647,0.609,��,3.6,��
2021/03/23,04:00,0.620,0.908,0.579,1.129,0.792,0.367,0.646,0.608,��,2.9,��
2021/03/23,04:10,0.620,0.908,0.577,1.130,0.792,0.368,0.646,0.609,��,3.6,��
2021/03/23,04:20,0.619,0.906,0.578,1.126,0.792,0.367,0.647,0.608,��,3.0,��
2021/03/23,04:30,0.620,0.906,0.580,1.129,0.792,0.367,0.646,0.608,��,4.3,��
2021/03/23,04:40,0.619,0.908,0.579,1.127,0.794,0.367,0.647,0.609,��,4.7,��
2021/03/23,04:50,0.619,0.907,0.579,1.129,0.794,0.367,0.646,0.609,��,4.4,��
2021/03/23,05:00,0.619,0.907,0.579,1.129,0.795,0.366,0.646,0.608,���k��,3.8,��
2021/03/23,05:10,0.620,0.908,0.579,1.128,0.793,0.367,0.646,0.609,��,4.4,��
2021/03/23,05:20,0.620,0.907,0.579,1.129,0.790,0.366,0.646,0.609,��,4.7,��
2021/03/23,05:30,0.619,0.908,0.578,1.128,0.791,0.366,0.646,0.608,��,5.2,��
2021/03/23,05:40,0.620,0.908,0.579,1.130,0.793,0.367,0.646,0.609,��,6.3,��
2021/03/23,05:50,0.619,0.907,0.578,1.126,0.790,0.366,0.646,0.608,��,6.3,��
2021/03/23,06:00,0.618,0.907,0.577,1.128,0.790,0.366,0.645,0.607,��,6.2,��
2021/03/23,06:10,0.619,0.907,0.580,1.129,0.792,0.367,0.645,0.609,��,6.7,��
2021/03/23,06:20,0.619,0.909,0.580,1.128,0.793,0.367,0.646,0.608,��,5.9,��
2021/03/23,06:30,0.620,0.907,0.579,1.128,0.792,0.367,0.646,0.608,��,4.2,��
2021/03/23,06:40,0.619,0.908,0.579,1.130,0.791,0.368,0.646,0.607,��,4.2,��
2021/03/23,06:50,0.621,0.908,0.577,1.129,0.793,0.367,0.647,0.608,��,4.7,��
2021/03/23,07:00,0.620,0.906,0.579,1.129,0.793,0.368,0.648,0.608,��,4.9,��
2021/03/23,07:10,0.619,0.908,0.577,1.130,0.794,0.366,0.646,0.608,���쐼,4.7,��
2021/03/23,07:20,0.618,0.908,0.579,1.130,0.792,0.368,0.646,0.611,���쐼,5.1,��
2021/03/23,07:30,0.621,0.909,0.578,1.130,0.791,0.367,0.647,0.609,���쐼,5.3,��
2021/03/23,07:40,0.622,0.908,0.579,1.128,0.793,0.366,0.647,0.608,���쐼,5.1,��
2021/03/23,07:50,0.621,0.908,0.578,1.129,0.792,0.368,0.648,0.610,��,4.4,��
2021/03/23,08:00,0.622,0.910,0.580,1.128,0.792,0.368,0.649,0.608,��,3.8,��
2021/03/23,08:10,0.619,0.909,0.580,1.128,0.793,0.367,0.648,0.610,��,4.1,��
2021/03/23,08:20,0.622,0.908,0.580,1.131,0.795,0.366,0.649,0.609,��,5.0,��
2021/03/23,08:30,0.623,0.909,0.581,1.129,0.794,0.366,0.649,0.610,��,6.7,��
2021/03/23,08:40,0.623,0.909,0.581,1.132,0.793,0.367,0.647,0.610,���k��,5.4,��
2021/03/23,08:50,0.623,0.908,0.581,1.129,0.794,0.367,0.645,0.610,��,4.0,��
2021/03/23,09:00,0.622,0.909,0.581,1.131,0.792,0.368,0.648,0.609,��,2.8,��
2021/03/23,09:10,0.622,0.910,0.581,1.131,0.795,0.367,0.646,0.609,���쐼,2.2,��
2021/03/23,09:20,0.622,0.908,0.582,1.131,0.793,0.367,0.648,0.608,��,3.6,��
2021/03/23,09:30,0.623,0.908,0.580,1.130,0.794,0.368,0.647,0.607,��,4.4,��
2021/03/23,09:40,0.623,0.908,0.580,1.131,0.794,0.369,0.647,0.608,��,5.5,��
2021/03/23,09:50,0.622,0.907,0.581,1.132,0.795,0.367,0.647,0.606,���k��,4.1,��
2021/03/23,10:00,0.624,0.909,0.582,1.135,0.794,0.367,0.647,0.606,��,4.2,��
2021/03/23,10:10,0.624,0.911,0.580,1.132,0.794,0.367,0.646,0.606,���쐼,4.8,��
2021/03/23,10:20,0.624,0.909,0.581,1.131,0.797,0.369,0.647,0.608,���쐼,4.1,��
2021/03/23,10:30,0.623,0.911,0.580,1.134,0.799,0.368,0.648,0.607,���쐼,5.2,��
2021/03/23,10:40,0.624,0.909,0.582,1.132,0.798,0.366,0.647,0.609,�k,2.0,��
2021/03/23,10:50,0.624,0.912,0.583,1.133,0.798,0.366,0.647,0.609,��,2.3,��
2021/03/23,11:00,0.624,0.911,0.583,1.132,0.799,0.366,0.648,0.607,��,2.2,��
2021/03/23,11:10,0.626,0.913,0.584,1.135,0.799,0.366,0.647,0.608,���k��,3.5,��
2021/03/23,11:20,0.625,0.911,0.583,1.134,0.797,0.367,0.649,0.607,-,-,��
2021/03/23,11:30,0.623,0.912,0.582,1.132,0.800,0.367,0.648,0.607,-,-,-
2021/03/23,11:40,0.623,0.912,0.582,1.133,0.798,0.366,0.648,0.608,-,-,-
2021/03/23,11:50,0.624,0.913,0.584,1.136,0.796,0.366,0.649,0.608,-,-,-
2021/03/23,12:00,0.627,0.913,0.583,1.134,0.798,0.367,0.648,0.610,-,-,-
2021/03/23,12:10,0.623,0.913,0.584,1.134,0.797,0.367,0.650,0.609,-,-,-
2021/03/23,12:20,0.625,0.914,0.584,1.136,0.796,0.368,0.649,0.608,-,-,-
2021/03/23,12:30,0.626,0.915,0.585,1.136,0.798,0.367,0.648,0.609,-,-,-
2021/03/23,12:40,0.624,0.914,0.582,1.135,0.799,0.367,0.648,0.609,-,-,-
2021/03/23,12:50,0.625,0.915,0.583,1.136,0.798,0.370,0.647,0.608,-,-,-
2021/03/23,13:00,0.625,0.914,0.582,1.134,0.799,0.369,0.648,0.608,-,-,-
2021/03/23,13:10,0.624,0.917,0.580,1.136,0.799,0.369,0.647,0.610,-,-,-
2021/03/23,13:20,0.625,0.916,0.582,1.135,0.799,0.369,0.648,0.609,-,-,-
2021/03/23,13:30,0.626,0.917,0.581,1.138,0.800,0.368,0.650,0.610,���k��,8.9,-
2021/03/23,13:40,0.624,0.915,0.582,1.136,0.799,0.369,0.649,0.610,���k��,10.2,��
2021/03/23,13:50,0.625,0.917,0.583,1.137,0.800,0.368,0.650,0.609,��,10.6,��
2021/03/23,14:00,0.626,0.917,0.584,1.140,0.802,0.367,0.647,0.609,��,8.4,��
2021/03/23,14:10,0.626,0.917,0.582,1.138,0.802,0.367,0.650,0.609,���k��,9.5,��
2021/03/23,14:20,0.625,0.921,0.585,1.138,0.802,0.368,0.650,0.608,���k��,8.2,��
2021/03/23,14:30,0.627,0.918,0.583,1.138,0.800,0.370,0.650,0.608,���k��,9.5,��
2021/03/23,14:40,0.625,0.919,0.584,1.140,0.802,0.370,0.649,0.608,���k��,7.6,��
2021/03/23,14:50,0.626,0.919,0.582,1.141,0.801,0.368,0.650,0.609,���k��,5.8,��
2021/03/23,15:00,0.624,0.919,0.585,1.141,0.802,0.365,0.651,0.609,���k��,5.9,��
2021/03/23,15:10,0.626,0.918,0.583,1.142,0.801,0.367,0.649,0.611,��,3.7,��
2021/03/23,15:20,0.625,0.918,0.584,1.140,0.802,0.369,0.652,0.609,��,5.1,��
2021/03/23,15:30,0.625,0.920,0.584,1.141,0.801,0.369,0.649,0.609,��,4.1,��
2021/03/23,15:40,0.626,0.919,0.582,1.140,0.801,0.371,0.650,0.609,��쐼,4.6,��
2021/03/23,15:50,0.625,0.921,0.585,1.142,0.804,0.371,0.650,0.609,��,5.6,��
2021/03/23,16:00,0.625,0.921,0.584,1.141,0.804,0.369,0.650,0.609,��,6.6,��
2021/03/23,16:10,0.625,0.920,0.584,1.141,0.801,0.369,0.651,0.609,��쓌,5.6,��
2021/03/23,16:20,0.625,0.919,0.583,1.140,0.802,0.370,0.649,0.611,��,8.5,��
2021/03/23,16:30,0.626,0.921,0.584,1.140,0.802,0.370,0.648,0.609,��쓌,8.9,��
2021/03/23,16:40,0.626,0.918,0.583,1.140,0.801,0.370,0.647,0.609,��쓌,7.8,��
2021/03/23,16:50,0.626,0.920,0.583,1.140,0.804,0.370,0.647,0.609,��,5.9,��
2021/03/23,17:00,0.625,0.923,0.585,1.140,0.803,0.370,0.648,0.610,��,7.4,��
2021/03/23,17:10,0.626,0.922,0.583,1.141,0.804,0.369,0.647,0.612,��,6.2,��
2021/03/23,17:20,0.627,0.922,0.585,1.137,0.802,0.370,0.650,0.613,��,4.5,��
2021/03/23,17:30,0.625,0.922,0.585,1.141,0.803,0.370,0.649,0.612,��,4.9,��
2021/03/23,17:40,0.626,0.922,0.585,1.137,0.802,0.369,0.651,0.611,��,5.2,��
2021/03/23,17:50,0.627,0.923,0.585,1.141,0.805,0.370,0.650,0.611,��,5.4,��
2021/03/23,18:00,0.628,0.924,0.585,1.140,0.807,0.369,0.651,0.610,��,4.9,��
2021/03/23,18:10,0.627,0.924,0.584,1.142,0.803,0.369,0.650,0.612,��,5.8,��
2021/03/23,18:20,0.628,0.923,0.584,1.140,0.804,0.371,0.652,0.611,��,6.3,��
2021/03/23,18:30,0.627,0.920,0.586,1.142,0.805,0.371,0.651,0.610,��,5.8,��
2021/03/23,18:40,0.629,0.921,0.585,1.139,0.804,0.370,0.650,0.610,��,4.0,��
2021/03/23,18:50,0.628,0.923,0.585,1.140,0.804,0.371,0.652,0.610,��쐼,4.2,��
2021/03/23,19:00,0.626,0.922,0.583,1.140,0.805,0.371,0.649,0.610,��쐼,4.8,��
2021/03/23,19:10,0.626,0.922,0.584,1.140,0.805,0.371,0.650,0.611,��쐼,5.3,��
2021/03/23,19:20,0.627,0.922,0.584,1.139,0.805,0.369,0.651,0.613,��쐼,5.1,��
2021/03/23,19:30,0.626,0.920,0.585,1.140,0.803,0.369,0.651,0.610,��쐼,5.2,��
2021/03/23,19:40,0.628,0.924,0.585,1.140,0.804,0.369,0.650,0.610,��쐼,5.3,��
2021/03/23,19:50,0.627,0.923,0.585,1.137,0.805,0.369,0.650,0.609,��쐼,3.4,��
2021/03/23,20:00,0.627,0.923,0.586,1.138,0.804,0.370,0.651,0.610,��쐼,2.6,��
2021/03/23,20:10,0.626,0.923,0.585,1.140,0.804,0.368,0.650,0.611,��쐼,3.5,��
2021/03/23,20:20,0.627,0.922,0.584,1.139,0.803,0.370,0.650,0.611,��쐼,3.6,��
2021/03/23,20:30,0.627,0.921,0.584,1.141,0.805,0.369,0.649,0.610,�쐼,3.4,��
2021/03/23,20:40,0.626,0.920,0.583,1.141,0.805,0.368,0.650,0.610,�쐼,3.2,��
2021/03/23,20:50,0.627,0.921,0.584,1.141,0.806,0.368,0.649,0.611,�쐼,3.0,��
2021/03/23,21:00,0.627,0.921,0.583,1.139,0.805,0.369,0.649,0.610,�쐼,3.1,��
2021/03/23,21:10,0.625,0.919,0.584,1.140,0.805,0.368,0.649,0.610,���쐼,3.0,��
2021/03/23,21:20,0.626,0.920,0.586,1.140,0.804,0.369,0.650,0.611,�쐼,2.6,��
2021/03/23,21:30,0.625,0.919,0.582,1.144,0.805,0.369,0.650,0.609,�쐼,2.6,��
2021/03/23,21:40,0.627,0.920,0.584,1.144,0.804,0.369,0.651,0.611,�쐼,2.3,��
2021/03/23,21:50,0.626,0.923,0.583,1.139,0.805,0.369,0.651,0.612,��쐼,2.8,��
2021/03/23,22:00,0.626,0.920,0.585,1.139,0.805,0.369,0.649,0.611,��쐼,2.5,��
2021/03/23,22:10,0.626,0.917,0.584,1.139,0.806,0.368,0.650,0.611,��,3.2,��
2021/03/23,22:20,0.626,0.923,0.583,1.142,0.808,0.369,0.650,0.610,��,2.9,��
2021/03/23,22:30,0.626,0.920,0.584,1.138,0.804,0.369,0.648,0.610,��,3.4,��
2021/03/23,22:40,0.627,0.920,0.585,1.138,0.806,0.368,0.651,0.612,��,3.5,��
2021/03/23,22:50,0.626,0.920,0.582,1.139,0.804,0.369,0.648,0.611,��쐼,3.1,��
2021/03/23,23:00,0.625,0.918,0.584,1.140,0.806,0.369,0.649,0.610,��쐼,3.3,��
2021/03/23,23:10,0.627,0.920,0.584,1.140,0.804,0.369,0.649,0.610,��쐼,2.9,��
2021/03/23,23:20,0.627,0.918,0.585,1.138,0.805,0.369,0.650,0.610,��쐼,3.1,��
2021/03/23,23:30,0.627,0.919,0.583,1.139,0.804,0.369,0.648,0.611,��쐼,3.2,��
2021/03/23,23:40,0.628,0.921,0.585,1.142,0.804,0.369,0.650,0.611,��,2.8,��
2021/03/23,23:50,0.626,0.918,0.585,1.140,0.804,0.369,0.650,0.612,��,2.8,��
